Location: Newark
(45.8667°N, 9.7333°E)
Time: 07:23:17
(UTC+00:00)

Vanguard 3 - Pass Details

Date: 26 January 2020
Orbit: 508 x 3263 km, 33.3° (Epoch: 20 February)

Event Time Altitude Azimuth Distance (km) Brightness Sun altitude
Rises 14:36:41 0° 207° (SSW) 6,540 13.3 13.2°
Reaches altitude 10° 14:41:35 10° 197° (SSW) 5,810 12.8 12.6°
Maximum altitude 14:56:36 31° 145° (SE) 4,668 11.2 10.7°
Drops below altitude 10° 15:11:32 10° 93° (E) 5,831 11.1 8.8°
Sets 15:16:23 0° 84° (E) 6,572 11.3 8.1°
